[[{"header":{"parameterUnit":"m.s-1","parameterCategory":1,"la1":30.2991,"la2":30.254,"lo1":-89.0895,"lo2":-89.0444,"dy":0.0017,"dx":0.0017,"nx":28,"ny":28,"refTime":"2024-03-29T09:00:00:Z","depth":0,"parameterNumber":2,"parameterNumberName":"U-component_of_WINDS"},"data":[0,0,0,0,0,0,0,0,0,0,0,0,0,0,0,0,0,0,0,0,0,0,0,0,0,0,0,0,0,0,0,0,0,0,0,0,0,0,0,0,0,0,0,0,0,0,0,0,0,0,0,0,0,0,0,0,0,0,-1.3029,-1.303,0,-1.3054,-1.3054,-1.3055,-1.3025,-1.3024,-1.3023,-1.3022,-1.3047,-1.3049,-1.305,0,0,0,0,0,0,0,0,0,0,0,0,0,-1.2958,-1.2959,-1.3029,-1.303,-1.303,-1.3054,-1.3054,-1.3055,-1.3025,-1.3024,-1.3023,-1.3022,-1.3046,-1.3048,-1.305,0,0,0,0,0,0,0,0,0,0,0,0,0,-1.2986,-1.296,-1.3029,-1.3018,-1.3018,-1.3054,-1.3054,-1.3055,-1.3026,-1.3024,-1.3022,-1.3021,-1.3046,-1.3048,-1.3051,-1.3099,0,0,-1.3058,-1.306,0,0,0,0,0,0,0,0,-1.2985,-1.2989,-1.302,-1.3019,-1.3018,-1.3035,-1.3038,-1.307,-1.3026,-1.3023,-1.3022,-1.302,-1.3044,-1.3047,-1.3055,-1.31,-1.3101,-1.3059,-1.306,-1.3061,-1.3062,0,0,0,0,0,0,0,-1.2983,-1.2988,-1.3039,-1.302,-1.3019,-1.3013,-1.3015,-1.3044,-1.3042,-1.3023,-1.3021,-1.3024,-1.3044,-1.3053,-1.3055,-1.3102,-1.3059,-1.3061,-1.3062,-1.3063,-1.319,-1.3192,0,0,0,0,0,0,-1.2982,-1.2986,-1.3038,-1.304,-1.2997,-1.3015,-1.3018,-1.3031,-1.3042,-1.3042,-1.3025,-1.3023,-1.3049,-1.3053,-1.3056,-1.3115,-1.3061,-1.3064,-1.3065,-1.3188,-1.319,-1.3192,0,0,0,0,0,0,-1.2981,-1.2987,-1.3037,-1.3013,-1.3019,-1.3018,-1.3034,-1.3033,-1.3042,-1.3044,-1.3044,-1.3035,-1.3048,-1.3053,-1.3089,-1.3115,-1.3065,-1.3067,-1.3186,-1.3189,-1.3191,-1.3231,0,0,0,0,0,0,-1.2979,-1.2987,-1.3005,-1.3013,-1.302,-1.307,-1.3035,-1.3034,-1.3046,-1.3043,-1.3053,-1.3053,-1.3047,-1.3086,-1.3092,-1.3117,-1.3069,-1.3184,-1.3187,-1.3191,-1.3227,-1.3235,-1.3241,0,0,0,0,0,-1.2976,-1.3014,-1.3006,-1.3012,-1.3042,-1.3071,-1.3075,-1.3068,-1.3048,-1.3067,-1.3069,-1.3053,-1.3112,-1.309,-1.3096,-1.3123,-1.3182,-1.3186,-1.319,-1.3224,-1.3233,-1.3241,0,0,0,0,0,0,-1.3008,-1.3015,-1.3005,-1.3047,-1.3059,-1.3066,-1.3089,-1.3077,-1.3094,-1.309,-1.308,-1.3083,-1.3122,-1.3126,-1.3102,-1.3172,-1.3144,-1.3149,-1.3167,-1.3176,-1.3183,-1.318,-1.3071,0,0,0,0,0,-1.302,-1.3042,-1.3047,-1.3084,-1.309,-1.3089,-1.3101,-1.3095,-1.3106,-1.3111,-1.3115,-1.3127,-1.3148,-1.3162,-1.3182,-1.3228,-1.3231,-1.3251,-1.3257,-1.3263,-1.3268,-1.3294,-1.3303,-1.3206,-1.3206,-1.3206,0,0,-1.3044,-1.3051,-1.3065,-1.309,-1.3098,-1.3123,-1.3093,-1.3119,-1.3137,-1.3115,-1.3149,-1.3154,-1.3166,-1.3209,-1.3227,-1.3213,-1.3296,-1.3268,-1.3273,-1.3274,-1.3299,-1.3308,-1.3317,-1.3209,-1.3208,-1.3208,0,0,-1.3101,-1.3108,-1.314,-1.3149,-1.3163,-1.3162,-1.317,-1.3179,-1.3181,-1.3216,-1.3201,-1.3222,-1.3259,-1.3269,-1.3279,-1.3343,-1.3329,-1.335,-1.3385,-1.3411,-1.3419,-1.3425,-1.3449,-1.3457,-1.3355,-1.3355,-1.3355,0,-1.3129,-1.3165,-1.3157,-1.3186,-1.3198,-1.318,-1.3212,-1.3222,-1.3241,-1.325,-1.3234,-1.3281,-1.3288,-1.3333,-1.3349,-1.3358,-1.3367,-1.3348,-1.3418,-1.3425,-1.3431,-1.3453,-1.3462,-1.3357,-1.3357,-1.3357,-1.3357,0,-1.32,-1.3225,-1.3249,-1.3269,-1.3284,-1.3314,-1.3312,-1.3328,-1.3321,-1.3323,-1.336,-1.3368,-1.339,-1.34,-1.3393,-1.3445,-1.3436,-1.342,-1.3391,-1.3443,-1.3464,-1.3472,-1.3361,-1.336,-1.3359,-1.3359,0,0,-1.3274,-1.3292,-1.3301,-1.331,-1.3325,-1.3345,-1.3375,-1.3397,-1.3411,-1.3426,-1.3452,-1.3484,-1.347,-1.3481,-1.3476,-1.3499,-1.355,-1.348,-1.348,-1.3493,-1.3608,-1.362,-1.363,-1.3542,-1.3543,-1.3545,-1.3607,0,-1.3332,-1.3384,-1.338,-1.343,-1.3454,-1.3438,-1.3465,-1.3477,-1.348,-1.3501,-1.3504,-1.3528,-1.3507,-1.3514,-1.3536,-1.3539,-1.3573,-1.3535,-1.3566,-1.3567,-1.3562,-1.3641,-1.3653,-1.3712,-1.3615,-1.3617,-1.3618,0,-1.3405,-1.3423,-1.3476,-1.3489,-1.3499,-1.3523,-1.3544,-1.3564,-1.3578,-1.3579,-1.3593,-1.3585,-1.3616,-1.3588,-1.3632,-1.3606,-1.3618,-1.3623,-1.3625,-1.3627,-1.3595,-1.3645,-1.3731,-1.3739,-1.363,-1.3629,-1.3628,0,-1.3455,-1.3493,-1.3529,-1.3538,-1.3554,-1.3572,-1.3579,-1.3592,-1.3606,-1.3625,-1.3634,-1.3656,-1.3668,-1.3686,-1.3683,-1.3663,-1.3728,-1.37,-1.373,-1.373,-1.3743,-1.3742,-1.3832,-1.3752,-1.3752,-1.3752,-1.3752,0,-1.3519,-1.3552,-1.3552,-1.3575,-1.3612,-1.3607,-1.3644,-1.365,-1.3662,-1.3686,-1.3674,-1.3697,-1.3693,-1.3716,-1.3715,-1.3752,-1.3757,-1.3759,-1.3758,-1.3759,-1.3759,-1.3767,-1.3763,-1.3754,-1.3754,-1.3754,-1.3753,0,-1.358,-1.3582,-1.3621,-1.3634,-1.3638,-1.3665,-1.3676,-1.3698,-1.37,-1.3731,-1.3738,-1.3742,-1.3769,-1.3769,-1.3799,-1.3798,-1.3844,-1.3838,-1.3839,-1.3838,-1.3868,-1.3865,-1.3965,-1.3978,-1.3891,-1.3891,-1.3892,0,-1.3621,-1.3646,-1.3662,-1.3678,-1.3687,-1.3711,-1.3727,-1.3724,-1.374,-1.376,-1.378,-1.3806,-1.3826,-1.3869,-1.3875,-1.3899,-1.3894,-1.3928,-1.3897,-1.3899,-1.3895,-1.3893,-1.3896,-1.3933,-1.3934,-1.3935,-1.3935,0,-1.3693,-1.3693,-1.3715,-1.3739,-1.3757,-1.3775,-1.3791,-1.3805,-1.3804,-1.3823,-1.3851,-1.3867,-1.3899,-1.3925,-1.3948,-1.3956,-1.3946,-1.3945,-1.3954,-1.3955,-1.3954,-1.3955,-1.3855,-1.3943,-1.3942,-1.3941,-1.3941,-1.3941,-1.3745,-1.3768,-1.3783,-1.3808,-1.3821,-1.3838,-1.3859,-1.3865,-1.3888,-1.3914,-1.3912,-1.3943,-1.3959,-1.3989,-1.4,-1.4024,-1.4012,-1.4024,-1.4027,-1.403,-1.4033,-1.3951,-1.4028,-1.4028,-1.4028,-1.4028,-1.4028,0,-1.3817,-1.3827,-1.385,-1.3875,-1.3895,-1.3885,-1.3904,-1.3921,-1.3949,-1.3965,-1.3986,-1.4018,-1.4044,-1.4053,-1.4079,-1.4097,-1.4093,-1.4103,-1.4102,-1.4104,-1.4042,-1.4033,-1.4106,-1.4106,-1.4106,-1.4106,-1.4106,-1.4106,-1.3857,-1.3894,-1.3897,-1.3941,-1.395,-1.3981,-1.3993,-1.4008,-1.4021,-1.4058,-1.408,-1.4086,-1.4099,-1.4126,-1.415,-1.4152,-1.4161,-1.4174,-1.4174,-1.4116,-1.4108,-1.4101,-1.4091,-1.4176,-1.4176,-1.4234,-1.4234,-1.4235]},{"header":{"parameterUnit":"m.s-1","parameterCategory":1,"la1":30.2991,"la2":30.254,"lo1":-89.0895,"lo2":-89.0444,"dy":0.0017,"dx":0.0017,"nx":28,"ny":28,"refTime":"2024-03-29T09:00:00:Z","depth":0,"parameterNumber":3,"parameterNumberName":"V-component_of_WINDS"},"data":[0,0,0,0,0,0,0,0,0,0,0,0,0,0,0,0,0,0,0,0,0,0,0,0,0,0,0,0,0,0,0,0,0,0,0,0,0,0,0,0,0,0,0,0,0,0,0,0,0,0,0,0,0,0,0,0,0,0,2.8642,2.8642,0,2.8709,2.871,2.8711,2.8789,2.879,2.8791,2.8792,2.8859,2.8859,2.886,0,0,0,0,0,0,0,0,0,0,0,0,0,2.858,2.8581,2.8642,2.8643,2.8643,2.8709,2.871,2.8711,2.8788,2.879,2.8791,2.8793,2.8859,2.8859,2.886,0,0,0,0,0,0,0,0,0,0,0,0,0,2.8623,2.8581,2.8642,2.869,2.8695,2.8709,2.871,2.8711,2.8788,2.879,2.8792,2.8793,2.8858,2.8859,2.886,2.8831,0,0,2.8863,2.8864,0,0,0,0,0,0,0,0,2.8621,2.8625,2.8682,2.8687,2.8692,2.8742,2.8713,2.8751,2.8788,2.8753,2.8792,2.8794,2.8818,2.8823,2.8831,2.8834,2.8837,2.8863,2.8864,2.8864,2.8865,0,0,0,0,0,0,0,2.8617,2.8623,2.8668,2.8683,2.8689,2.8709,2.8717,2.872,2.8775,2.8756,2.8762,2.8769,2.8822,2.883,2.8834,2.8838,2.8863,2.8864,2.8865,2.8865,2.8823,2.8822,0,0,0,0,0,0,2.8607,2.862,2.8666,2.867,2.866,2.8708,2.8717,2.8724,2.8775,2.8784,2.8767,2.8772,2.8828,2.8832,2.8836,2.8808,2.8864,2.8865,2.8866,2.8825,2.8823,2.8821,0,0,0,0,0,0,2.8606,2.8611,2.8664,2.8647,2.8655,2.8707,2.8715,2.8725,2.8734,2.8784,2.8793,2.8766,2.8829,2.8835,2.8833,2.8811,2.8866,2.8867,2.8827,2.8824,2.8822,2.8748,0,0,0,0,0,0,2.8604,2.861,2.8599,2.8646,2.8656,2.8658,2.8714,2.8725,2.8736,2.8743,2.8785,2.8794,2.8831,2.8831,2.8834,2.8813,2.8867,2.8829,2.8826,2.8823,2.8753,2.8744,2.8736,0,0,0,0,0,2.8601,2.8574,2.8598,2.8603,2.8643,2.8657,2.8662,2.8707,2.8733,2.8723,2.8756,2.8793,2.8813,2.883,2.8834,2.8813,2.8831,2.8827,2.8823,2.8757,2.8745,2.8736,0,0,0,0,0,0,2.8522,2.8581,2.8608,2.8596,2.8621,2.867,2.8659,2.8693,2.871,2.8716,2.8769,2.8778,2.877,2.8791,2.8809,2.8789,2.8827,2.8824,2.8776,2.8765,2.8757,2.8752,2.8868,0,0,0,0,0,2.8503,2.8509,2.8561,2.8545,2.8557,2.8605,2.8613,2.8645,2.8673,2.8684,2.8716,2.8741,2.8754,2.876,2.8774,2.8756,2.8768,2.8745,2.8736,2.8729,2.8725,2.872,2.8711,2.8808,2.8808,2.8808,0,0,2.8464,2.8497,2.8498,2.853,2.8553,2.856,2.8614,2.8617,2.8622,2.8684,2.8685,2.8709,2.8741,2.8732,2.8729,2.8749,2.8701,2.8724,2.8717,2.8718,2.8715,2.8706,2.8698,2.8806,2.8806,2.8806,0,0,2.8396,2.8421,2.8412,2.8435,2.8471,2.8504,2.8501,2.8546,2.8565,2.8567,2.8615,2.8622,2.8641,2.8663,2.8676,2.862,2.8655,2.8623,2.8578,2.8572,2.8565,2.8558,2.854,2.8533,2.8619,2.8619,2.8619,0,2.8343,2.8354,2.8403,2.8405,2.8418,2.8476,2.8468,2.8488,2.8525,2.8533,2.8556,2.8584,2.8609,2.8607,2.8593,2.8602,2.8602,2.8618,2.8562,2.8556,2.855,2.8534,2.8527,2.8615,2.8616,2.8616,2.8616,0,2.8288,2.8295,2.8284,2.8321,2.8333,2.8329,2.8378,2.8385,2.8416,2.8447,2.845,2.8482,2.8505,2.8507,2.8537,2.851,2.8522,2.8552,2.8591,2.8536,2.8522,2.8516,2.8609,2.8611,2.8612,2.8613,0,0,2.8171,2.8237,2.8232,2.8251,2.8295,2.8302,2.8302,2.8326,2.8331,2.8356,2.8358,2.8375,2.8404,2.8419,2.8452,2.8447,2.8404,2.8479,2.8481,2.8465,2.8379,2.8357,2.8349,2.8427,2.8426,2.8425,2.8377,0,2.8113,2.8117,2.8162,2.8154,2.8162,2.8218,2.8219,2.8246,2.8275,2.8287,2.8319,2.8331,2.8368,2.8378,2.8376,2.8409,2.8387,2.8413,2.8431,2.8431,2.8422,2.8341,2.8317,2.827,2.8371,2.837,2.837,0,2.8045,2.8068,2.806,2.8108,2.8113,2.8112,2.814,2.815,2.8183,2.8205,2.8223,2.8261,2.8266,2.8302,2.831,2.8326,2.8336,2.8354,2.8353,2.8358,2.8397,2.8344,2.8255,2.8249,2.8361,2.8361,2.8362,0,2.7963,2.7991,2.7992,2.8006,2.806,2.8059,2.8082,2.8117,2.8129,2.8152,2.8162,2.8184,2.8197,2.8214,2.8258,2.828,2.8261,2.8301,2.8281,2.828,2.8275,2.8275,2.8188,2.8278,2.8278,2.8278,2.8279,0,2.7894,2.7888,2.7956,2.7956,2.7952,2.8004,2.7998,2.8026,2.8057,2.8064,2.8113,2.8119,2.8176,2.8189,2.8223,2.8225,2.823,2.8248,2.8258,2.8245,2.8243,2.8253,2.8258,2.8277,2.8277,2.8277,2.8278,0,2.7802,2.7847,2.7852,2.7904,2.7917,2.7912,2.7957,2.7959,2.7992,2.8001,2.8006,2.8058,2.8075,2.8121,2.8149,2.8173,2.8166,2.8182,2.8155,2.8162,2.814,2.8142,2.8057,2.805,2.8143,2.8142,2.8141,0,2.7756,2.7753,2.7805,2.7815,2.7836,2.7849,2.7863,2.7914,2.7926,2.7966,2.7964,2.7986,2.8006,2.8031,2.8072,2.8094,2.8113,2.8082,2.8117,2.8105,2.8115,2.8115,2.8116,2.8074,2.8073,2.8072,2.8071,0,2.7669,2.7693,2.7711,2.7738,2.7753,2.7776,2.7802,2.7806,2.7865,2.7876,2.7895,2.7911,2.7942,2.7964,2.7993,2.8017,2.8054,2.806,2.8057,2.8044,2.803,2.804,2.8137,2.8062,2.8063,2.8063,2.8064,2.8064,2.7601,2.7602,2.764,2.7659,2.7685,2.7708,2.7714,2.7749,2.7766,2.7796,2.7826,2.7842,2.7878,2.7922,2.7943,2.7958,2.7977,2.7972,2.7971,2.7969,2.7964,2.8026,2.7963,2.7963,2.7964,2.7964,2.7964,0,2.7519,2.7547,2.7564,2.76,2.7616,2.765,2.7681,2.7692,2.7707,2.7737,2.7757,2.778,2.7802,2.7845,2.787,2.7874,2.7892,2.7879,2.788,2.7886,2.7945,2.7946,2.7864,2.7864,2.7864,2.7864,2.7864,2.7865,2.7478,2.7483,2.7511,2.7529,2.7558,2.7575,2.759,2.7613,2.7638,2.7662,2.7681,2.771,2.7746,2.7775,2.7797,2.7809,2.7817,2.7799,2.7817,2.7871,2.7881,2.789,2.7892,2.78,2.78,2.7757,2.7757,2.7756]}]]